| time (UTC) | temp F | wind direction | speed knots | gust knots | rain 1hr in | rain 24hr in | rain mn in | humidity % | barometer mb |
| 20260906055626 | 55 | 78 | 0.9 | 1.7 | 0.00 | 0.00 | 0.00 | 99 | 1013.9 |
| 20260906055120 | 55 | 80 | 1.7 | 1.7 | 0.00 | 0.00 | 0.00 | 99 | 1014.0 |
| 20260906054616 | 55 | 50 | 0.9 | 0.9 | 0.00 | 0.00 | 0.00 | 99 | 1013.9 |
| 20260906054111 | 55 | 43 | 0.9 | 0.9 | 0.00 | 0.00 | 0.00 | 99 | 1014.0 |
| 20260906053608 | 56 | 50 | 0.0 | 0.9 | 0.00 | 0.00 | 0.00 | 99 | 1014.0 |
| 20260906053103 | 56 | 39 | 0.9 | 1.7 | 0.00 | 0.00 | 0.00 | 99 | 1014.0 |
| 20260906052558 | 56 | 93 | 1.7 | 1.7 | 0.00 | 0.00 | 0.00 | 99 | 1013.9 |
| 20260906052055 | 56 | 34 | 0.0 | 0.9 | 0.00 | 0.00 | 0.00 | 99 | 1014.0 |
| 20260906051550 | 56 | 50 | 0.9 | 1.7 | 0.00 | 0.00 | 0.00 | 99 | 1013.9 |
| 20260906051045 | 56 | 83 | 0.9 | 0.9 | 0.00 | 0.00 | 0.00 | 99 | 1014.2 |
| 20260906050535 | 56 | 93 | 0.9 | 1.7 | 0.00 | 0.00 | 0.00 | 99 | 1014.0 |
| 20260906050031 | 56 | 49 | 0.9 | 1.7 | 0.00 | 0.00 | 0.00 | 99 | 1014.0 |
| 20260906045529 | 56 | 22 | 0.0 | 0.0 | 0.00 | 0.00 | 0.00 | 99 | 1013.9 |
| 20260906045024 | 56 | 38 | 0.0 | 0.0 | 0.00 | 0.00 | 0.00 | 99 | 1014.0 |
| 20260906044519 | 56 | 47 | 0.0 | 1.7 | 0.00 | 0.00 | 0.00 | 99 | 1014.0 |
| 20260906044009 | 56 | 91 | 1.7 | 1.7 | 0.00 | 0.00 | 0.00 | 99 | 1014.0 |
| 20260906043505 | 56 | 62 | 1.7 | 1.7 | 0.00 | 0.00 | 0.00 | 99 | 1013.8 |
| 20260906043001 | 56 | 74 | 1.7 | 1.7 | 0.00 | 0.00 | 0.00 | 99 | 1014.0 |
| 20260906042500 | 56 | 35 | 0.0 | 0.9 | 0.00 | 0.00 | 0.00 | 99 | 1013.9 |
| 20260906041959 | 56 | 44 | 0.0 | 0.9 | 0.00 | 0.00 | 0.00 | 99 | 1014.0 |
| 20260906041456 | 56 | 311 | 0.0 | 0.9 | 0.00 | 0.00 | 0.00 | 99 | 1014.0 |
| 20260906040955 | 57 | 321 | 0.9 | 0.9 | 0.00 | 0.00 | 0.00 | 99 | 1014.0 |
| 20260906040450 | 57 | 44 | 0.0 | 0.9 | 0.00 | 0.00 | 0.00 | 99 | 1013.9 |
| 20260906035945 | 57 | 38 | 0.0 | 0.0 | 0.00 | 0.00 | 0.00 | 99 | 1013.9 |
| 20260906035441 | 57 | 60 | 0.0 | 0.9 | 0.00 | 0.00 | 0.00 | 99 | 1013.8 |
| 20260906034936 | 57 | 42 | 0.0 | 0.9 | 0.00 | 0.00 | 0.00 | 99 | 1013.8 |
| 20260906034431 | 57 | 66 | 0.9 | 0.9 | 0.00 | 0.00 | 0.00 | 99 | 1013.8 |
| 20260906033926 | 57 | 37 | 0.0 | 1.7 | 0.00 | 0.00 | 0.00 | 99 | 1014.0 |
| 20260906033421 | 57 | 93 | 1.7 | 1.7 | 0.00 | 0.00 | 0.00 | 99 | 1013.6 |
| 20260906032916 | 57 | 40 | 0.9 | 1.7 | 0.00 | 0.00 | 0.00 | 99 | 1013.8 |
| 20260906032413 | 57 | 21 | 0.0 | 0.9 | 0.00 | 0.00 | 0.00 | 99 | 1013.6 |
| 20260906031907 | 57 | 347 | 0.0 | 0.9 | 0.00 | 0.00 | 0.00 | 99 | 1013.6 |
| 20260906031403 | 57 | 46 | 0.9 | 0.9 | 0.00 | 0.00 | 0.00 | 99 | 1013.5 |
| 20260906030857 | 57 | 95 | 0.9 | 1.7 | 0.00 | 0.00 | 0.00 | 99 | 1013.5 |
| 20260906030352 | 58 | 72 | 1.7 | 1.7 | 0.00 | 0.00 | 0.00 | 99 | 1013.4 |
| 20260906025846 | 58 | 58 | 1.7 | 1.7 | 0.00 | 0.00 | 0.00 | 99 | 1013.5 |
| 20260906025341 | 58 | 46 | 1.7 | 1.7 | 0.00 | 0.00 | 0.00 | 99 | 1013.7 |
| 20260906024840 | 58 | 74 | 1.7 | 1.7 | 0.00 | 0.00 | 0.00 | 99 | 1013.7 |
| 20260906024339 | 58 | 89 | 0.0 | 1.7 | 0.00 | 0.00 | 0.00 | 99 | 1013.5 |
| 20260906023835 | 58 | 77 | 1.7 | 1.7 | 0.00 | 0.00 | 0.00 | 99 | 1013.7 |
| 20260906023330 | 58 | 49 | 0.9 | 0.9 | 0.00 | 0.00 | 0.00 | 99 | 1013.5 |
| 20260906022826 | 58 | 55 | 0.0 | 0.9 | 0.00 | 0.00 | 0.00 | 99 | 1013.7 |
| 20260906022321 | 58 | 80 | 1.7 | 1.7 | 0.00 | 0.00 | 0.00 | 99 | 1013.5 |
| 20260906021816 | 59 | 82 | 0.9 | 1.7 | 0.00 | 0.00 | 0.00 | 99 | 1013.6 |
| 20260906021316 | 59 | 56 | 0.9 | 1.7 | 0.00 | 0.00 | 0.00 | 99 | 1013.6 |
| 20260906020815 | 59 | 51 | 0.0 | 1.7 | 0.00 | 0.00 | 0.00 | 99 | 1013.6 |
| 20260906020315 | 59 | 68 | 1.7 | 1.7 | 0.00 | 0.00 | 0.00 | 99 | 1013.5 |
| 20260906015810 | 59 | 54 | 0.0 | 0.9 | 0.00 | 0.00 | 0.00 | 99 | 1013.3 |
| 20260906015308 | 59 | 32 | 0.0 | 0.9 | 0.00 | 0.00 | 0.00 | 99 | 1013.5 |
| 20260906014803 | 59 | 50 | 0.0 | 0.0 | 0.00 | 0.00 | 0.00 | 99 | 1013.1 |
| 20260906014259 | 59 | 66 | 0.0 | 0.9 | 0.00 | 0.00 | 0.00 | 99 | 1013.1 |
| 20260906013755 | 60 | 50 | 0.0 | 0.9 | 0.00 | 0.00 | 0.00 | 99 | 1013.3 |
| 20260906013255 | 60 | 77 | 0.9 | 1.7 | 0.00 | 0.00 | 0.00 | 99 | 1013.0 |
| 20260906012750 | 60 | 85 | 0.9 | 1.7 | 0.00 | 0.00 | 0.00 | 99 | 1013.1 |
| 20260906012245 | 60 | 65 | 0.9 | 0.9 | 0.00 | 0.00 | 0.00 | 99 | 1012.9 |
| 20260906011740 | 60 | 52 | 0.0 | 0.9 | 0.00 | 0.00 | 0.00 | 99 | 1013.2 |
| 20260906011240 | 61 | 54 | 0.9 | 1.7 | 0.00 | 0.00 | 0.00 | 99 | 1013.3 |
| 20260906010735 | 61 | 34 | 0.0 | 0.9 | 0.00 | 0.00 | 0.00 | 99 | 1013.0 |
| 20260906010232 | 61 | 96 | 0.9 | 1.7 | 0.00 | 0.00 | 0.00 | 99 | 1013.0 |
| 20260906005727 | 61 | 33 | 0.9 | 0.9 | 0.00 | 0.00 | 0.00 | 99 | 1013.0 |
| 20260906005226 | 61 | 344 | 0.0 | 0.9 | 0.00 | 0.00 | 0.00 | 99 | 1013.2 |
| 20260906004725 | 61 | 30 | 0.0 | 0.9 | 0.00 | 0.00 | 0.00 | 98 | 1013.0 |
| 20260906004220 | 62 | 38 | 0.0 | 0.9 | 0.00 | 0.00 | 0.00 | 98 | 1012.9 |
| 20260906003715 | 62 | 44 | 0.0 | 0.9 | 0.00 | 0.00 | 0.00 | 98 | 1012.6 |
| 20260906003211 | 62 | 76 | 0.9 | 0.9 | 0.00 | 0.00 | 0.00 | 97 | 1012.6 |
| 20260906002711 | 62 | 53 | 0.9 | 0.9 | 0.00 | 0.00 | 0.00 | 97 | 1012.7 |
| 20260906002201 | 62 | 45 | 0.9 | 0.9 | 0.00 | 0.00 | 0.00 | 97 | 1012.5 |
| 20260906001656 | 62 | 29 | 0.0 | 1.7 | 0.00 | 0.00 | 0.00 | 96 | 1012.7 |
| 20260906001155 | 63 | 321 | 0.9 | 0.9 | 0.00 | 0.00 | 0.00 | 96 | 1012.7 |
| 20260906000651 | 63 | 89 | 0.0 | 0.9 | 0.00 | 0.00 | 0.00 | 95 | 1012.7 |
| 20260906000146 | 63 | 37 | 0.0 | 0.0 | 0.00 | 0.00 | 0.00 | 95 | 1012.6 |
| 20260905235645 | 64 | 39 | 0.0 | 0.9 | 0.00 | 0.00 | 0.00 | 94 | 1012.6 |
| 20260905235140 | 64 | 80 | 0.9 | 1.7 | 0.00 | 0.00 | 0.00 | 94 | 1012.3 |
| 20260905234635 | 64 | 316 | 0.9 | 1.7 | 0.00 | 0.00 | 0.00 | 93 | 1012.6 |
| 20260905234132 | 64 | 13 | 0.0 | 1.7 | 0.00 | 0.00 | 0.00 | 92 | 1012.4 |
| 20260905233631 | 65 | 79 | 1.7 | 1.7 | 0.00 | 0.00 | 0.00 | 91 | 1012.7 |
| 20260905233125 | 65 | 50 | 0.0 | 0.9 | 0.00 | 0.00 | 0.00 | 90 | 1012.6 |
| 20260905232621 | 66 | 95 | 0.9 | 0.9 | 0.00 | 0.00 | 0.00 | 90 | 1012.5 |
| 20260905232117 | 66 | 44 | 0.0 | 0.0 | 0.00 | 0.00 | 0.00 | 88 | 1012.6 |
| 20260905231617 | 67 | 13 | 0.9 | 1.7 | 0.00 | 0.00 | 0.00 | 85 | 1012.5 |
| 20260905231113 | 68 | 0 | 1.7 | 1.7 | 0.00 | 0.00 | 0.00 | 83 | 1012.3 |
| 20260905230609 | 68 | 20 | 1.7 | 2.6 | 0.00 | 0.00 | 0.00 | 82 | 1012.3 |
| 20260905230106 | 68 | 22 | 2.6 | 2.6 | 0.00 | 0.00 | 0.00 | 81 | 1012.3 |
| 20260905225600 | 68 | 11 | 1.7 | 1.7 | 0.00 | 0.00 | 0.00 | 81 | 1012.3 |
| 20260905225055 | 69 | 13 | 0.0 | 1.7 | 0.00 | 0.00 | 0.00 | 82 | 1012.3 |
| 20260905224555 | 69 | 12 | 1.7 | 1.7 | 0.00 | 0.00 | 0.00 | 80 | 1012.5 |
| 20260905224055 | 70 | 16 | 0.9 | 1.7 | 0.00 | 0.00 | 0.00 | 78 | 1012.4 |
| 20260905223552 | 70 | 22 | 1.7 | 1.7 | 0.00 | 0.00 | 0.00 | 79 | 1012.3 |
| 20260905223048 | 70 | 21 | 0.9 | 1.7 | 0.00 | 0.00 | 0.00 | 77 | 1012.4 |
| 20260905222548 | 70 | 16 | 1.7 | 2.6 | 0.00 | 0.00 | 0.00 | 77 | 1012.1 |
| 20260905222043 | 71 | 320 | 0.0 | 1.7 | 0.00 | 0.00 | 0.00 | 79 | 1012.2 |
| 20260905221540 | 71 | 30 | 0.0 | 1.7 | 0.00 | 0.00 | 0.00 | 75 | 1012.2 |
| 20260905221036 | 71 | 19 | 0.9 | 2.6 | 0.00 | 0.00 | 0.00 | 75 | 1012.0 |
| 20260905220531 | 72 | 15 | 2.6 | 2.6 | 0.00 | 0.00 | 0.00 | 72 | 1012.1 |
| 20260905220027 | 72 | 26 | 1.7 | 2.6 | 0.00 | 0.00 | 0.00 | 73 | 1012.2 |
| 20260905215526 | 73 | 50 | 0.0 | 1.7 | 0.00 | 0.00 | 0.00 | 70 | 1011.9 |
| 20260905215023 | 73 | 26 | 0.9 | 1.7 | 0.00 | 0.00 | 0.00 | 70 | 1011.9 |
| 20260905214518 | 72 | 10 | 1.7 | 1.7 | 0.00 | 0.00 | 0.00 | 71 | 1012.0 |
| 20260905214013 | 72 | 355 | 1.7 | 2.6 | 0.00 | 0.00 | 0.00 | 72 | 1011.8 |
| 20260905213509 | 72 | 0 | 1.7 | 2.6 | 0.00 | 0.00 | 0.00 | 73 | 1011.8 |
| 20260905213004 | 72 | 11 | 1.7 | 2.6 | 0.00 | 0.00 | 0.00 | 70 | 1011.8 |
| 20260905212459 | 72 | 17 | 1.7 | 1.7 | 0.00 | 0.00 | 0.00 | 71 | 1011.7 |
| 20260905211958 | 72 | 50 | 0.0 | 2.6 | 0.00 | 0.00 | 0.00 | 72 | 1011.8 |
| 20260905211454 | 73 | 355 | 1.7 | 1.7 | 0.00 | 0.00 | 0.00 | 75 | 1011.8 |
| 20260905210950 | 73 | 344 | 1.7 | 1.7 | 0.00 | 0.00 | 0.00 | 70 | 1011.4 |
| 20260905210445 | 73 | 18 | 2.6 | 3.5 | 0.00 | 0.00 | 0.00 | 75 | 1011.5 |
| 20260905205944 | 73 | 47 | 0.9 | 2.6 | 0.00 | 0.00 | 0.00 | 74 | 1011.5 |
| 20260905205439 | 72 | 135 | 2.6 | 4.3 | 0.00 | 0.00 | 0.00 | 74 | 1011.6 |
| 20260905204938 | 72 | 40 | 0.9 | 1.7 | 0.00 | 0.00 | 0.00 | 75 | 1011.7 |
| 20260905204434 | 71 | 15 | 1.7 | 1.7 | 0.00 | 0.00 | 0.00 | 74 | 1011.6 |
| 20260905203933 | 71 | 7 | 1.7 | 2.6 | 0.00 | 0.00 | 0.00 | 73 | 1011.4 |
| 20260905203429 | 72 | 0 | 2.6 | 2.6 | 0.00 | 0.00 | 0.00 | 71 | 1011.5 |
| 20260905202924 | 73 | 353 | 3.5 | 3.5 | 0.00 | 0.00 | 0.00 | 72 | 1011.4 |
| 20260905202419 | 74 | 34 | 0.9 | 1.7 | 0.00 | 0.00 | 0.00 | 70 | 1011.6 |
| 20260905201915 | 74 | 348 | 1.7 | 2.6 | 0.00 | 0.00 | 0.00 | 68 | 1011.4 |
| 20260905201409 | 75 | 7 | 1.7 | 3.5 | 0.00 | 0.00 | 0.00 | 66 | 1011.6 |
| 20260905200904 | 75 | 6 | 3.5 | 3.5 | 0.00 | 0.00 | 0.00 | 67 | 1011.5 |
| 20260905200400 | 74 | 41 | 1.7 | 1.7 | 0.00 | 0.00 | 0.00 | 73 | 1011.6 |
| 20260905195857 | 72 | 36 | 0.9 | 2.6 | 0.00 | 0.00 | 0.00 | 72 | 1011.6 |
| 20260905195353 | 72 | 13 | 0.9 | 1.7 | 0.00 | 0.00 | 0.00 | 73 | 1011.5 |
| 20260905194849 | 72 | 266 | 0.9 | 1.7 | 0.00 | 0.00 | 0.00 | 73 | 1011.6 |
| 20260905194348 | 72 | 20 | 0.9 | 1.7 | 0.00 | 0.00 | 0.00 | 76 | 1011.7 |
| 20260905193847 | 71 | 13 | 0.9 | 1.7 | 0.00 | 0.00 | 0.00 | 76 | 1011.6 |
| 20260905193342 | 72 | 337 | 1.7 | 2.6 | 0.00 | 0.00 | 0.00 | 73 | 1011.5 |
| 20260905192838 | 72 | 29 | 0.9 | 3.5 | 0.00 | 0.00 | 0.00 | 72 | 1011.6 |
| 20260905192334 | 74 | 106 | 0.9 | 2.6 | 0.00 | 0.00 | 0.00 | 67 | 1011.6 |
| 20260905191833 | 75 | 311 | 1.7 | 2.6 | 0.00 | 0.00 | 0.00 | 68 | 1011.4 |
| 20260905191332 | 74 | 130 | 2.6 | 6.1 | 0.00 | 0.00 | 0.00 | 68 | 1011.6 |
| 20260905190831 | 73 | 69 | 0.9 | 1.7 | 0.00 | 0.00 | 0.00 | 72 | 1011.7 |
| 20260905190325 | 72 | 18 | 0.9 | 1.7 | 0.00 | 0.00 | 0.00 | 74 | 1011.7 |
| 20260905185823 | 72 | 48 | 1.7 | 1.7 | 0.00 | 0.00 | 0.00 | 74 | 1011.6 |
| 20260905185319 | 72 | 23 | 2.6 | 3.5 | 0.00 | 0.00 | 0.00 | 73 | 1011.7 |
| 20260905184812 | 72 | 328 | 3.5 | 3.5 | 0.00 | 0.00 | 0.00 | 76 | 1011.8 |
| 20260905184311 | 72 | 312 | 2.6 | 2.6 | 0.00 | 0.00 | 0.00 | 76 | 1011.7 |
| 20260905183810 | 72 | 1 | 0.9 | 2.6 | 0.00 | 0.00 | 0.00 | 70 | 1011.6 |
| 20260905183306 | 72 | 73 | 1.7 | 1.7 | 0.00 | 0.00 | 0.00 | 71 | 1011.8 |
| 20260905182800 | 72 | 52 | 1.7 | 2.6 | 0.00 | 0.00 | 0.00 | 70 | 1011.6 |
| 20260905182300 | 73 | 26 | 1.7 | 1.7 | 0.00 | 0.00 | 0.00 | 70 | 1011.6 |
| 20260905181755 | 72 | 26 | 1.7 | 2.6 | 0.00 | 0.00 | 0.00 | 71 | 1011.6 |
| 20260905181254 | 72 | 50 | 1.7 | 3.5 | 0.00 | 0.00 | 0.00 | 71 | 1011.7 |
| 20260905180748 | 72 | 26 | 1.7 | 3.5 | 0.00 | 0.00 | 0.00 | 71 | 1011.6 |
| 20260905180243 | 72 | 10 | 0.9 | 2.6 | 0.00 | 0.00 | 0.00 | 72 | 1011.7 |
| 20260905175739 | 72 | 9 | 2.6 | 2.6 | 0.00 | 0.00 | 0.00 | 72 | 1011.6 |
| 20260905175233 | 72 | 347 | 1.7 | 2.6 | 0.00 | 0.00 | 0.00 | 72 | 1011.7 |
| 20260905174728 | 72 | 12 | 1.7 | 2.6 | 0.00 | 0.00 | 0.00 | 71 | 1011.7 |
| 20260905174224 | 72 | 31 | 1.7 | 1.7 | 0.00 | 0.00 | 0.00 | 71 | 1011.8 |
| 20260905173720 | 73 | 22 | 1.7 | 1.7 | 0.00 | 0.00 | 0.00 | 69 | 1011.6 |
| 20260905173215 | 73 | 0 | 0.0 | 1.7 | 0.00 | 0.00 | 0.00 | 68 | 1011.7 |
| 20260905172709 | 72 | 351 | 1.7 | 2.6 | 0.00 | 0.00 | 0.00 | 71 | 1011.6 |
| 20260905172203 | 72 | 323 | 1.7 | 3.5 | 0.00 | 0.00 | 0.00 | 71 | 1011.8 |
| 20260905171659 | 74 | 24 | 3.5 | 5.2 | 0.00 | 0.00 | 0.00 | 68 | 1011.7 |
| 20260905171155 | 74 | 35 | 0.9 | 2.6 | 0.00 | 0.00 | 0.00 | 66 | 1011.8 |
| 20260905170652 | 72 | 19 | 1.7 | 1.7 | 0.00 | 0.00 | 0.00 | 70 | 1012.0 |
| 20260905170147 | 71 | 16 | 0.9 | 1.7 | 0.00 | 0.00 | 0.00 | 72 | 1011.9 |
| 20260905165646 | 71 | 10 | 1.7 | 3.5 | 0.00 | 0.00 | 0.00 | 71 | 1011.8 |
| 20260905165142 | 73 | 4 | 1.7 | 1.7 | 0.00 | 0.00 | 0.00 | 69 | 1011.7 |
| 20260905164637 | 73 | 5 | 2.6 | 3.5 | 0.00 | 0.00 | 0.00 | 71 | 1012.1 |
| 20260905164136 | 74 | 17 | 0.0 | 2.6 | 0.00 | 0.00 | 0.00 | 67 | 1011.9 |
| 20260905163632 | 74 | 117 | 2.6 | 3.5 | 0.00 | 0.00 | 0.00 | 72 | 1011.9 |
| 20260905163128 | 73 | 348 | 1.7 | 1.7 | 0.00 | 0.00 | 0.00 | 71 | 1011.9 |
| 20260905162624 | 72 | 49 | 1.7 | 2.6 | 0.00 | 0.00 | 0.00 | 75 | 1012.0 |
| 20260905162123 | 71 | 22 | 1.7 | 3.5 | 0.00 | 0.00 | 0.00 | 75 | 1012.0 |
| 20260905161623 | 71 | 356 | 1.7 | 1.7 | 0.00 | 0.00 | 0.00 | 79 | 1011.9 |
| 20260905161121 | 70 | 12 | 1.7 | 1.7 | 0.00 | 0.00 | 0.00 | 74 | 1012.0 |
| 20260905160621 | 71 | 72 | 1.7 | 1.7 | 0.00 | 0.00 | 0.00 | 75 | 1012.0 |
| 20260905160115 | 71 | 32 | 0.0 | 1.7 | 0.00 | 0.00 | 0.00 | 72 | 1012.0 |
| 20260905155609 | 73 | 127 | 2.6 | 3.5 | 0.00 | 0.00 | 0.00 | 73 | 1012.0 |
| 20260905155108 | 71 | 38 | 1.7 | 1.7 | 0.00 | 0.00 | 0.00 | 74 | 1012.0 |
| 20260905154608 | 69 | 5 | 2.6 | 2.6 | 0.00 | 0.00 | 0.00 | 76 | 1012.2 |
| 20260905154104 | 69 | 350 | 1.7 | 2.6 | 0.00 | 0.00 | 0.00 | 76 | 1012.1 |
| 20260905153600 | 69 | 120 | 1.7 | 2.6 | 0.00 | 0.00 | 0.00 | 80 | 1012.1 |
| 20260905153059 | 70 | 359 | 2.6 | 2.6 | 0.00 | 0.00 | 0.00 | 76 | 1012.1 |
| 20260905152554 | 69 | 16 | 1.7 | 1.7 | 0.00 | 0.00 | 0.00 | 80 | 1012.3 |
| 20260905152049 | 70 | 71 | 0.0 | 1.7 | 0.00 | 0.00 | 0.00 | 78 | 1012.2 |
| 20260905151545 | 70 | 13 | 2.6 | 3.5 | 0.00 | 0.00 | 0.00 | 75 | 1012.0 |
| 20260905151040 | 71 | 93 | 0.9 | 2.6 | 0.00 | 0.00 | 0.00 | 76 | 1012.0 |
| 20260905150535 | 71 | 109 | 2.6 | 3.5 | 0.00 | 0.00 | 0.00 | 77 | 1012.2 |
| 20260905150033 | 69 | 76 | 2.6 | 3.5 | 0.00 | 0.00 | 0.00 | 78 | 1012.1 |
| 20260905145527 | 68 | 91 | 1.7 | 2.6 | 0.00 | 0.00 | 0.00 | 79 | 1012.4 |
| 20260905145026 | 69 | 55 | 0.0 | 2.6 | 0.00 | 0.00 | 0.00 | 78 | 1012.2 |
| 20260905144521 | 70 | 29 | 0.0 | 4.3 | 0.00 | 0.00 | 0.00 | 76 | 1012.1 |
| 20260905144020 | 71 | 3 | 1.7 | 3.5 | 0.00 | 0.00 | 0.00 | 75 | 1012.1 |
| 20260905143520 | 71 | 10 | 1.7 | 2.6 | 0.00 | 0.00 | 0.00 | 78 | 1012.3 |
| 20260905143015 | 69 | 357 | 1.7 | 3.5 | 0.00 | 0.00 | 0.00 | 79 | 1012.1 |
| 20260905142513 | 68 | 352 | 1.7 | 2.6 | 0.00 | 0.00 | 0.00 | 82 | 1012.3 |
| 20260905142009 | 69 | 2 | 1.7 | 3.5 | 0.00 | 0.00 | 0.00 | 80 | 1012.4 |
| 20260905141503 | 70 | 50 | 0.0 | 3.5 | 0.00 | 0.00 | 0.00 | 78 | 1012.2 |
| 20260905141000 | 69 | 359 | 2.6 | 3.5 | 0.00 | 0.00 | 0.00 | 79 | 1012.0 |
| 20260905140455 | 68 | 23 | 2.6 | 3.5 | 0.00 | 0.00 | 0.00 | 82 | 1012.4 |
| 20260905135953 | 68 | 42 | 1.7 | 3.5 | 0.00 | 0.00 | 0.00 | 83 | 1012.5 |
| 20260905135449 | 69 | 47 | 0.9 | 3.5 | 0.00 | 0.00 | 0.00 | 82 | 1012.1 |
| 20260905134945 | 69 | 7 | 1.7 | 2.6 | 0.00 | 0.00 | 0.00 | 81 | 1012.1 |
| 20260905134443 | 69 | 353 | 1.7 | 3.5 | 0.00 | 0.00 | 0.00 | 84 | 1012.1 |
| 20260905133942 | 68 | 4 | 2.6 | 3.5 | 0.00 | 0.00 | 0.00 | 85 | 1012.0 |
| 20260905133438 | 69 | 358 | 1.7 | 4.3 | 0.00 | 0.00 | 0.00 | 86 | 1012.3 |
| 20260905132937 | 68 | 70 | 0.9 | 3.5 | 0.00 | 0.00 | 0.00 | 88 | 1012.0 |
| 20260905132432 | 66 | 4 | 0.9 | 3.5 | 0.00 | 0.00 | 0.00 | 92 | 1012.1 |
| 20260905131928 | 66 | 97 | 1.7 | 2.6 | 0.00 | 0.00 | 0.00 | 95 | 1012.1 |
| 20260905131424 | 64 | 33 | 1.7 | 1.7 | 0.00 | 0.00 | 0.00 | 99 | 1011.9 |
| 20260905130924 | 62 | 206 | 0.0 | 0.9 | 0.00 | 0.00 | 0.00 | 99 | 1012.3 |
| 20260905130423 | 61 | 97 | 1.7 | 2.6 | 0.00 | 0.00 | 0.00 | 99 | 1012.0 |
| 20260905125923 | 60 | 101 | 0.9 | 3.5 | 0.00 | 0.00 | 0.00 | 99 | 1012.4 |
| 20260905125418 | 60 | 89 | 0.9 | 1.7 | 0.00 | 0.00 | 0.00 | 99 | 1012.1 |
| 20260905124913 | 58 | 29 | 1.7 | 1.7 | 0.00 | 0.00 | 0.00 | 99 | 1012.5 |
| 20260905124410 | 58 | 85 | 0.9 | 1.7 | 0.00 | 0.00 | 0.00 | 99 | 1012.8 |
| 20260905123910 | 58 | 89 | 0.0 | 1.7 | 0.00 | 0.00 | 0.00 | 99 | 1012.6 |
| 20260905123407 | 57 | 98 | 1.7 | 2.6 | 0.00 | 0.00 | 0.00 | 99 | 1012.8 |
| 20260905122902 | 57 | 147 | 0.9 | 2.6 | 0.00 | 0.00 | 0.00 | 99 | 1013.0 |
| 20260905122401 | 57 | 27 | 1.7 | 2.6 | 0.00 | 0.00 | 0.00 | 99 | 1012.9 |
| 20260905121856 | 57 | 69 | 1.7 | 1.7 | 0.00 | 0.00 | 0.00 | 99 | 1012.8 |
| 20260905121353 | 57 | 39 | 0.9 | 1.7 | 0.00 | 0.00 | 0.00 | 99 | 1012.8 |
| 20260905120851 | 57 | 99 | 0.9 | 1.7 | 0.00 | 0.00 | 0.00 | 99 | 1012.8 |
| 20260905120346 | 56 | 85 | 2.6 | 2.6 | 0.00 | 0.00 | 0.00 | 99 | 1012.6 |
| 20260905115841 | 56 | 87 | 0.9 | 1.7 | 0.00 | 0.00 | 0.00 | 99 | 1012.5 |
| 20260905115340 | 56 | 81 | 1.7 | 2.6 | 0.00 | 0.00 | 0.00 | 99 | 1012.4 |
| 20260905114835 | 56 | 29 | 0.0 | 0.9 | 0.00 | 0.00 | 0.00 | 99 | 1012.2 |
| 20260905114334 | 56 | 66 | 1.7 | 1.7 | 0.00 | 0.00 | 0.00 | 99 | 1012.3 |
| 20260905113833 | 55 | 107 | 0.9 | 1.7 | 0.00 | 0.00 | 0.00 | 99 | 1012.1 |
| 20260905113329 | 55 | 55 | 0.0 | 0.9 | 0.00 | 0.00 | 0.00 | 99 | 1012.2 |
| 20260905112825 | 55 | 49 | 1.7 | 1.7 | 0.00 | 0.00 | 0.00 | 99 | 1012.0 |
| 20260905112319 | 55 | 27 | 1.7 | 1.7 | 0.00 | 0.00 | 0.00 | 99 | 1012.1 |
| 20260905111815 | 55 | 51 | 0.9 | 1.7 | 0.00 | 0.00 | 0.00 | 99 | 1012.2 |
| 20260905111315 | 55 | 82 | 1.7 | 1.7 | 0.00 | 0.00 | 0.00 | 99 | 1012.1 |
| 20260905110814 | 55 | 356 | 0.9 | 1.7 | 0.00 | 0.00 | 0.00 | 99 | 1012.0 |
| 20260905110308 | 55 | 22 | 1.7 | 1.7 | 0.00 | 0.00 | 0.00 | 99 | 1011.8 |
| 20260905105804 | 55 | 41 | 0.9 | 1.7 | 0.00 | 0.00 | 0.00 | 99 | 1012.0 |
| 20260905105306 | 55 | 68 | 1.7 | 2.6 | 0.00 | 0.00 | 0.00 | 99 | 1011.9 |
| 20260905104757 | 55 | 37 | 1.7 | 1.7 | 0.00 | 0.00 | 0.00 | 99 | 1012.0 |
| 20260905104254 | 55 | 39 | 1.7 | 1.7 | 0.00 | 0.00 | 0.00 | 99 | 1011.7 |
| 20260905103753 | 55 | 70 | 1.7 | 1.7 | 0.00 | 0.00 | 0.00 | 99 | 1011.7 |
| 20260905103249 | 55 | 56 | 1.7 | 2.6 | 0.00 | 0.00 | 0.00 | 99 | 1011.6 |
| 20260905102744 | 55 | 47 | 1.7 | 1.7 | 0.00 | 0.00 | 0.00 | 99 | 1011.8 |
| 20260905102241 | 55 | 53 | 1.7 | 1.7 | 0.00 | 0.00 | 0.00 | 99 | 1011.3 |
| 20260905101740 | 55 | 63 | 0.0 | 1.7 | 0.00 | 0.00 | 0.00 | 99 | 1011.6 |
| 20260905101238 | 55 | 77 | 0.0 | 0.9 | 0.00 | 0.00 | 0.00 | 99 | 1011.4 |
| 20260905100734 | 55 | 76 | 0.0 | 1.7 | 0.00 | 0.00 | 0.00 | 99 | 1011.5 |
| 20260905100230 | 55 | 30 | 1.7 | 1.7 | 0.00 | 0.00 | 0.00 | 99 | 1011.4 |
| 20260905095729 | 55 | 52 | 0.9 | 1.7 | 0.00 | 0.00 | 0.00 | 99 | 1011.4 |
| 20260905095229 | 55 | 89 | 0.9 | 1.7 | 0.00 | 0.00 | 0.00 | 99 | 1011.2 |
| 20260905094724 | 55 | 48 | 1.7 | 2.6 | 0.00 | 0.00 | 0.00 | 99 | 1011.3 |
| 20260905094219 | 55 | 53 | 0.9 | 1.7 | 0.00 | 0.00 | 0.00 | 99 | 1011.2 |
| 20260905093713 | 56 | 47 | 1.7 | 1.7 | 0.00 | 0.00 | 0.00 | 99 | 1010.9 |
| 20260905093209 | 56 | 62 | 1.7 | 1.7 | 0.00 | 0.00 | 0.00 | 99 | 1011.2 |
| 20260905092704 | 56 | 67 | 1.7 | 1.7 | 0.00 | 0.00 | 0.00 | 99 | 1011.2 |
| 20260905092200 | 56 | 50 | 1.7 | 1.7 | 0.00 | 0.00 | 0.00 | 99 | 1011.2 |
| 20260905091659 | 56 | 24 | 0.0 | 1.7 | 0.00 | 0.00 | 0.00 | 99 | 1011.3 |
| 20260905091153 | 56 | 50 | 0.0 | 1.7 | 0.00 | 0.00 | 0.00 | 99 | 1011.2 |
| 20260905090648 | 56 | 55 | 1.7 | 1.7 | 0.00 | 0.00 | 0.00 | 99 | 1011.2 |
| 20260905090144 | 56 | 76 | 1.7 | 1.7 | 0.00 | 0.00 | 0.00 | 99 | 1011.2 |
| 20260905085642 | 56 | 40 | 1.7 | 1.7 | 0.00 | 0.00 | 0.00 | 99 | 1011.5 |
| 20260905085137 | 56 | 41 | 0.9 | 1.7 | 0.00 | 0.00 | 0.00 | 99 | 1011.2 |
| 20260905084636 | 56 | 32 | 0.0 | 1.7 | 0.00 | 0.00 | 0.00 | 99 | 1011.2 |
| 20260905084131 | 56 | 76 | 0.0 | 1.7 | 0.00 | 0.00 | 0.00 | 99 | 1011.3 |
| 20260905083626 | 56 | 37 | 1.7 | 1.7 | 0.00 | 0.00 | 0.00 | 99 | 1011.5 |
| 20260905083123 | 56 | 86 | 0.9 | 1.7 | 0.00 | 0.00 | 0.00 | 99 | 1011.5 |
| 20260905082618 | 56 | 72 | 0.0 | 0.9 | 0.00 | 0.00 | 0.00 | 99 | 1011.5 |
| 20260905082114 | 56 | 49 | 0.0 | 0.9 | 0.00 | 0.00 | 0.00 | 99 | 1011.4 |
| 20260905081613 | 56 | 45 | 0.0 | 1.7 | 0.00 | 0.00 | 0.00 | 99 | 1011.7 |
| 20260905081108 | 57 | 34 | 0.0 | 1.7 | 0.00 | 0.00 | 0.00 | 99 | 1011.4 |
| 20260905080603 | 57 | 46 | 1.7 | 1.7 | 0.00 | 0.00 | 0.00 | 99 | 1011.4 |
| 20260905080057 | 57 | 30 | 1.7 | 1.7 | 0.00 | 0.00 | 0.00 | 99 | 1011.4 |
| 20260905075550 | 57 | 41 | 0.9 | 1.7 | 0.00 | 0.00 | 0.00 | 99 | 1011.6 |
| 20260905075045 | 57 | 75 | 0.9 | 1.7 | 0.00 | 0.00 | 0.00 | 99 | 1011.7 |
| 20260905074544 | 57 | 71 | 0.0 | 0.9 | 0.00 | 0.00 | 0.00 | 99 | 1011.6 |
| 20260905074040 | 57 | 22 | 0.0 | 0.9 | 0.00 | 0.00 | 0.00 | 99 | 1011.6 |
| 20260905073535 | 57 | 31 | 0.9 | 1.7 | 0.00 | 0.00 | 0.00 | 99 | 1011.6 |
| 20260905073031 | 57 | 39 | 0.0 | 1.7 | 0.00 | 0.00 | 0.00 | 99 | 1011.6 |
| 20260905072530 | 58 | 89 | 0.9 | 1.7 | 0.00 | 0.00 | 0.00 | 99 | 1011.4 |
| 20260905072026 | 58 | 40 | 0.0 | 0.9 | 0.00 | 0.00 | 0.00 | 99 | 1011.7 |
| 20260905071523 | 58 | 23 | 0.9 | 1.7 | 0.00 | 0.00 | 0.00 | 99 | 1011.7 |
| 20260905071023 | 58 | 34 | 0.9 | 1.7 | 0.00 | 0.00 | 0.00 | 99 | 1011.7 |
| 20260905070518 | 58 | 86 | 0.0 | 1.7 | 0.00 | 0.00 | 0.00 | 99 | 1011.7 |
| 20260905070014 | 58 | 27 | 0.9 | 1.7 | 0.00 | 0.00 | 0.00 | 99 | 1011.9 |
| 20260905065511 | 58 | 45 | 1.7 | 1.7 | 0.00 | 0.00 | 0.00 | 99 | 1011.8 |
| 20260905065007 | 58 | 65 | 0.9 | 2.6 | 0.00 | 0.00 | 0.00 | 99 | 1011.9 |
| 20260905064502 | 58 | 25 | 0.9 | 0.9 | 0.00 | 0.00 | 0.00 | 99 | 1011.8 |
| 20260905063956 | 58 | 68 | 0.9 | 2.6 | 0.00 | 0.00 | 0.00 | 99 | 1011.9 |
| 20260905063450 | 58 | 51 | 0.0 | 0.9 | 0.00 | 0.00 | 0.00 | 99 | 1011.8 |
| 20260905062947 | 58 | 63 | 0.0 | 1.7 | 0.00 | 0.00 | 0.00 | 99 | 1012.0 |
| 20260905062441 | 58 | 28 | 1.7 | 1.7 | 0.00 | 0.00 | 0.00 | 99 | 1012.1 |
| 20260905061937 | 58 | 45 | 1.7 | 1.7 | 0.00 | 0.00 | 0.00 | 99 | 1012.0 |
| 20260905061436 | 58 | 49 | 0.0 | 1.7 | 0.00 | 0.00 | 0.00 | 99 | 1012.1 |
| 20260905060935 | 58 | 44 | 0.9 | 1.7 | 0.00 | 0.00 | 0.00 | 99 | 1012.1 |
| 20260905060432 | 58 | 50 | 0.0 | 0.9 | 0.00 | 0.00 | 0.00 | 99 | 1012.1 |